Regional Weather Roundup
Issued by NWS Jackson, KY

Home | Current Version | Previous Version | Graphics & Text | Print | Product List | Glossary On
Versions: 1 2 3 4 5 6 7 8 9 10 11 12 13 14 15 16 17 18 19 20 21 22 23 24 25 26 27
000
ASUS43 KJKL 281710
RWRJKL

EAST KENTUCKY HOURLY WEATHER ROUNDUP
NATIONAL WEATHER SERVICE JACKSON KY
100 PM EDT SUN MAY 28 2017

NOTE: "FAIR" INDICATES FEW OR NO CLOUDS BELOW 12,000 FEET WITH
NO SIGNIFICANT WEATHER AND/OR OBSTRUCTIONS TO VISIBILITY.

* THESE REPORTS ARE NOT UNDER NWS QUALITY CONTROL AND MAY NOT
  REPORT WEATHER SUCH AS PRECIPITATION AND FOG.

KYZ079-080-083-085-087-088-110-112-115-119-120-281800
...EASTERN KENTUCKY...

CITY           SKY/WX    TMP DP  RH WIND       PRES   REMARKS
JACKSON        CLOUDY    69  62  78 VRB5      29.86F
LONDON         CLOUDY    70  60  70 SW10G20   29.89R
SOMERSET*      CLOUDY    70  59  68 W10G22    29.90S
MONTICELLO*    CLOUDY    70  62  76 W22G28    29.91R
WILLIAMSBURG*  CLOUDY    72  64  78 SW8G17    29.89S
MIDDLESBORO*   CLOUDY    71  60  68 S3        29.91F
HARLAN APT*    CLOUDY    72  59  64 SW6       29.91F
PIKE CO APT*   CLOUDY    71  62  72 SW5       29.89S
BIG SANDY APT* CLOUDY    73  63  72 SW5       29.88S
MOREHEAD APT*  CLOUDY    72  61  68 SW12      29.85F
$$

KYZ035-036-041-042-044-050-067-078-099-281800
...CENTRAL KENTUCKY...

CITY           SKY/WX    TMP DP  RH WIND       PRES   REMARKS
MT STERLING*   CLOUDY    70  63  78 W6        29.86R
FLEMING/MASON* CLOUDY    72  63  72 SW16G23   29.83S
DANVILLE*      CLOUDY    72  61  68 W10       29.88R
LEXINGTON      CLOUDY    73  61  65 W13G22    29.85R
FRANKFORT      PTSUNNY   74  61  63 SW13G21   29.82S
LOUISVILLE     PTSUNNY   75  63  66 W12G24    29.81F
LEBANON*         N/A     73  63  68 SW13      29.85F
GLASGOW*       PTSUNNY   71  62  71 SW8       29.88S
BOWLING GREEN  PTSUNNY   74  65  73 W13G18    29.87R
$$

KYZ091>093-OHZ055-061-077-WVZ005-015-034-035-042-281800
...SOUTHERN OHIO/WEST VIRGINIA...

CITY           SKY/WX    TMP DP  RH WIND       PRES   REMARKS
COVINGTON      CLOUDY    71  61  70 SW13G21   29.81R
COLUMBUS       CLOUDY    73  64  73 S10G20    29.76F
DAYTON         CLOUDY    74  63  68 SW16      29.77S
WILMINGTON     CLOUDY    73  65  75 S17       29.77F
HUNTINGTON     CLOUDY    72  63  73 S7        29.83F
CHARLESTON     CLOUDY    73  62  68 S10       29.83F
PINEVILLE*     MOSUNNY   75  62  64 MISG      29.94S
BECKLEY        MOSUNNY   70  59  68 CALM      29.92F
BLUEFIELD      PTSUNNY   70  58  65 W8        29.94S
LOGAN CO APT*    N/A     75  63  64 VRB5      29.87F
$$

VAZ002-007-008-TNZ017-027-036-066-071-281800
...SOUTHWEST VIRGINIA/EAST TENNESSEE...

CITY           SKY/WX    TMP DP  RH WIND       PRES   REMARKS
WISE*          PTSUNNY   70  59  68 SW10      29.95F
JONESVILLE*      N/A     73  63  68 SW12      29.93F
ABINGDON*      CLOUDY    71  64  76 W12G17    29.95S
BRISTOL        PTSUNNY   75  63  66 W10       29.93S
MORRISTOWN*    PTSUNNY   72  64  78 SW13      29.91F
SEVIERVILLE*   MOSUNNY   73  63  68 W8        29.90F
KNOXVILLE      CLOUDY    71  64  78 SW10      29.89F
LAFOLLETTE*    PTSUNNY   73  61  64 VRB3      29.93R
OAK RIDGE      CLOUDY    73  63  70 VRB3      29.90F
CROSSVILLE     PTSUNNY   71  60  68 W12G22    29.96R
NASHVILLE      PTSUNNY   74  61  63 VRB6      29.90F
$$

...KEY TO REMARKS...
VSB - VISIBILITY IN MILES
WCI - WIND CHILL INDEX
HX  - HEAT INDEX

$$




USA.gov is the U.S. government's official web portal to all federal, state and local government web resources and services.